Preisvergleich
Suchen Sie bei den großen Preisvergleich Portalen gleichzeitig! 


Sitemap17

27.2.2024 2:01

In den Sitemaps finden Sie im Meta-Preisvergleich häufig gefragte Suchworte sortiert nach der Anzahl der Anfragen.

Anfragen Suchwort Ergebnisse Datum Quellen
33ipalat halspastillen3022024-01-21 00:07:0021
33lr parfum4502024-02-03 00:07:0121
33holzklotz1642024-02-26 00:07:0122
33burti compact132024-02-01 00:07:0121
33klapphocker camping6392024-02-27 00:07:0121
33batterie aaa13332024-02-02 00:07:0121
33motul 8100 x-clean 5w303012024-02-21 00:07:0121
33maico eca 100 ipro kvzc772024-01-31 00:07:0020
33kdl-26ex555182024-02-03 00:07:0121
33samsung galaxy beam1542024-01-27 00:07:0121
33g23 led lampe2452024-02-27 00:07:0121
33ginkgo maren1662024-02-24 00:07:0121
33lacie 2big thunderbolt1642024-01-27 00:07:0121
33pg-5404722024-01-29 00:07:0121
33wmf function 4 5-teilig162024-02-04 00:07:0121
33rademacher 1700372024-02-27 00:07:0121
33telefunken 50 zoll1882024-01-22 00:07:0120
33speaka professional tv-wandhalterung4162024-01-21 00:07:0021
33hydro 5 wilkinson4562024-02-10 00:07:0121
33m-disc rohling2102024-02-13 00:07:0121
33marantz pm 8005102024-02-19 00:07:0120
33lego 750421142024-02-22 00:07:0121
33puzzi 10 11862024-02-27 00:07:0121
33heosafe 1958152024-02-03 00:07:0120
33spiegelschrank leuchte6312024-02-23 00:07:0121
33nike benassi2022024-02-02 00:07:0121
33asus bw-16d1h-u pro592024-02-19 00:07:0121
33olympea paco rabanne3242024-01-31 00:07:0021
33samsung waschmaschine 8 kg2142024-02-24 00:07:0121
33tk170 14000 seiten82024-02-14 00:07:0121
33dji 4 pro6792024-02-14 00:07:0121
3311240397372024-02-21 00:07:0148
33neradin tabletten582024-02-19 00:07:0121
33asus zendrive u9m1752024-02-18 00:07:0122
33xbox game pass8312024-02-24 00:07:0121
33atomic redster x7502024-01-31 00:07:0021
33claris smart 71794812024-01-19 00:07:0121
33tz202 panasonic482024-02-18 00:07:0121
33dr-321cl1532024-02-16 00:07:0121
33synology dx517892024-02-19 00:07:0121
3360197 lego2192024-02-26 00:07:0121
33canephron uno1062024-02-24 00:07:0121
33kärcher pcl 4722024-02-23 00:07:0121
33sandisk extreme portable ssd 1 tb2472024-01-24 00:07:0121
33darmflora plus select intensiv182024-01-29 00:07:0121
33lenovo thinkpad l5902292024-02-27 00:07:0121
33bosch flexxo serie 4 21.6v252024-02-05 00:07:0121
33samsung portable ssd t7 touch1632024-02-07 00:07:0220
33enders monroe 4 sik turbo412024-02-02 00:07:0121
33technisat digitradio 371652024-02-01 00:07:0121
33cube touring hybrid pro 625892024-02-22 00:07:0121
33pocketbook touch lux 5452024-02-23 00:07:0121
33bosch ctl636eb6322024-02-12 00:07:0121
33unbranded2772024-02-15 00:07:0121
33dji mini 2 akku2472024-01-20 00:07:0120
33miele wci 870 wps82024-02-26 00:07:0121
33elektra verve162024-02-07 00:07:0221
33fritz 60002152024-01-26 00:07:0121
33mylife pura1242024-02-26 00:07:0120
33samsung buds 25602024-02-03 00:07:0121
33ecotank et-28501442024-01-29 00:07:0121
33ms office 20213572024-02-20 00:07:0121
331200ax3382024-02-25 00:07:0121
33osram h4 led1862024-02-21 00:07:0121
33avm 6690 cable1182024-02-18 00:07:0120
33hp officejet pro 9010e1752024-01-20 00:07:0121
33magentatv one662024-02-01 00:07:0121
33soflow so4 pro gen 21022024-02-04 00:07:0119
33airtag 44632024-02-05 00:07:0121
33canon maxify gx50501402024-02-24 00:07:0121
33oukitel p2001482024-01-28 00:07:0120
33avm fritz fon x61322024-02-25 00:07:0121
33google pixel 7 pro 256gb1742024-02-04 00:07:0121
33http xfs.bxss.me meta-preisvergleich.de9682024-01-24 00:07:0130
33lg oled48a29la212024-02-10 00:07:0121
33jbl bar 500262024-02-20 00:07:0121
33kickers kickstoner 42132024-01-27 00:07:0121
33lg oled55g39la312024-02-14 00:07:0121
33samsung galaxy a54 5g 256gb2922024-02-26 00:07:0121
33redmi note 12 5g5082024-02-11 00:07:0121
33jabra elite 102062024-02-26 00:07:0121
33samsung galaxy tab s9 fe7002024-02-23 00:07:0121
33imac m35072024-02-14 00:07:0121
33samsung s24 hülle case5612024-01-22 00:07:0121
32forex7652024-02-05 00:07:0121
32casio ex z600262024-02-17 00:07:0118
32winkelleiste7182024-02-16 00:07:0121
32sprühgold2042024-02-09 00:07:0121
32hansgrohe küchenarmatur9402024-01-25 00:07:0121
32samsung t93292024-01-23 00:07:0122
32wärmegürtel5782024-02-22 00:07:0121
32cluedo classic1782024-02-23 00:07:0121
32schnittschutz handschuh9532024-01-22 00:07:0119
32ytx4l-bs3562024-02-24 00:07:0121
32beistelltisch nussbaum4772024-02-24 00:07:0121
32ralph lauren jeans8192024-02-11 00:07:0121
32luminox navy seals512024-02-27 01:55:4221
32tesa klettband7102024-01-29 00:07:0121
32tagesgeldkonto142024-02-11 00:07:0121
32schwalbe land cruiser 262122024-01-29 00:07:0121
32natives olivenöl5612024-01-19 00:07:0121
32nikon telekonverter2192024-02-20 00:07:0121
32arnika salbe6072024-02-02 00:07:0121
32sandisk mobilemate772024-01-30 00:07:0121
32handmade13312024-02-05 00:07:0121
32papierhandtücher weiß8332024-02-23 00:07:0121
32staubsaugerbeutel m504272024-02-12 00:07:0122
32royal canin exigent4942024-02-18 00:07:0121
32lancome bocage662024-01-20 00:07:0121
3275834992024-02-12 00:07:0149
32omron m31752024-02-16 00:07:0121
32bosch gsb 162142024-01-21 00:07:0020
32aufrüstkit pc4342024-02-08 00:07:0121
32haarschneider wahl5852024-01-28 00:07:0121
32ssd 2,5 zoll5752024-02-09 00:07:0121
32e27 halogen7042024-02-10 00:07:0121
32audiokassette3322024-01-20 00:07:0121
32rode nt4452024-02-16 00:07:0121
32blend a dent super haftcreme extra stark1672024-02-13 00:07:0121
32tellicherry pfeffer1512024-01-23 00:07:0121
32abschlagbehälter3712024-02-26 00:07:0121
32tempur sonata m572024-02-22 00:07:0120
32wasserrudergerät1392024-02-05 00:07:0121
32saugnapfhalterung5202024-02-21 00:07:0121
32nivea soft creme4132024-02-06 00:07:0221
32hp refurbished4552024-02-27 01:09:5420
32aeg staubsauger vampyr5842024-02-02 00:07:0121
32mxs 5.0 test charge562024-02-27 00:07:0121
32creatin 1kg2132024-02-11 00:07:0121
32armbanduhr solar funk6802024-01-20 00:07:0121
32regenjacke 4xl4972024-01-29 00:07:0121
32ankarsrum küchenmaschine1822024-02-25 00:07:0120
32dell s2415h82024-02-25 00:07:0121
32miele sf-ha50302024-02-15 00:07:0121
32geloprosed542024-01-24 00:07:0120
32usb stick 256gb usb 3.05922024-02-06 00:07:0221
32reer feelwell972024-02-19 00:07:0121
32jbod7682024-02-21 00:07:0122
32quarter cask1682024-02-19 00:07:0121
32windmesser netatmo732024-02-06 00:07:0221
32dunlop winter sport 5 205 55 r162642024-01-21 00:07:0021
32amd ryzen 513812024-02-04 00:07:0121
32stihl km 131 r632024-02-17 00:07:0121
322,5 festplatte 4tb4212024-02-18 00:07:0121
32rösle pfanne 241942024-02-05 00:07:0121
32acer swift 3 sf315-41812024-02-15 00:07:0121
32oticon connectclip122024-02-19 00:07:0121
32wmf lono raclette 8412024-01-22 00:07:0121
32columbia windbreaker6402024-02-08 00:07:0121
32df333dsae872024-02-01 00:07:0121
32acer aspire 5 a515-54g-50f2152024-02-10 00:07:0121
32technisat digitradio 102482024-02-04 00:07:0120
32reflecta x33-scan762024-02-22 00:07:0121
32crucial x83572024-01-24 00:07:0120
32noco boost plus gb40262024-02-08 00:07:0121
32feliway optimum1092024-01-27 00:07:0121
32lg 32un880832024-01-22 00:07:0121
32gsb 12v-351672024-02-10 00:07:0121
32nvidia geforce rtx 30608842024-02-16 00:07:0121
32medion p85003132024-02-19 00:07:0121
32canton smart sounddeck 100202024-01-30 00:07:0120
32galaxy s21 ultra 5g 256gb1392024-01-20 00:07:0121
32dreame t20 pro382024-02-12 00:07:0121
32fritz fon c6 black1012024-01-21 00:07:0021
32air tag apple3442024-02-08 00:07:0121
32specialized align ii772024-02-26 00:07:0121
32canon gx70501652024-01-25 00:07:0120
32af400eu562024-02-24 00:07:0121
32yamaha cd-s303362024-02-24 00:07:0121
32xiaomi portable electric air compressor 1s622024-01-29 00:07:0121
32miele wwe 360 wps102024-02-18 00:07:0121
32xcover 6 pro2412024-01-19 00:07:0121
32tools12162024-01-28 00:07:0122
32kesser infrarot elektroheizung2082024-02-20 00:07:0121
32tasty11932024-02-21 00:07:0121
32http bxss.me t fit.txt9682024-01-24 00:07:0130
32xiaomi pad 6 pro1752024-02-10 00:07:0121
32apple iphone 1511352024-02-16 00:07:0121
32iphone 15 pro 2566762024-02-08 00:07:0121
32cookie monster7582024-02-07 00:07:0221
31badewannentrockner1202024-02-07 00:07:0219
31styropor 100mm2592024-01-19 00:07:0121
31perilex stecker1012024-02-02 00:07:0121
31märklin 7226592024-01-31 00:07:0021
31dr. jacobs granatapfel-elixier142024-02-21 00:07:0121
31schuh regal13702024-01-29 00:07:0121
31lem lapalma2212024-02-25 00:07:0121
31solac fusselentferner122024-01-24 00:07:0121
31esge 350772024-01-24 00:07:0120
31piano 88 tasten6712024-02-11 00:07:0121
31maier sports14202024-02-18 00:07:0121
31einwegoverall3012024-02-22 00:07:0120
31glk mercedes3222024-01-19 00:07:0121
31tannin9282024-02-18 00:07:0121
31deuter speed lite 30792024-01-22 00:07:0120
31puzzi 8 11822024-02-20 00:07:0121
31glas vitrine13002024-01-25 00:07:0121
31jadore eau de parfum1372024-02-19 00:07:0119
31holzspalter elektrisch2802024-02-05 00:07:0121
31canton reference 9.2 dc82024-02-11 00:07:0121
31wecker technoline6402024-01-21 00:07:0021
31ganzjahresreifen 175 65 r145932024-02-18 00:07:0121
31silit milchtopf582024-02-15 00:07:0121
31josera festival 15 kg232024-01-31 00:07:0021
31glasermesser422024-02-20 00:07:0120
31v3954042024-02-08 00:07:0121
31bausch lomb purevision24512024-02-06 00:07:0221
31elektrischer hornhautentferner4592024-02-06 00:07:0220
31einhell rg-sa 1435162024-02-26 00:07:0121
31bosch hbg5382024-01-31 00:07:0021
31hp drucker 86003102024-02-04 00:07:0123
31braun series 5 rasierer7282024-02-25 00:07:0121
31preisver922024-02-21 00:07:0121
31puma daunenjacke3452024-02-21 00:07:0121
31matratzenschoner 140 2006302024-02-01 00:07:0121
31dpf reiniger2622024-02-27 00:07:0121
31moccamaster cdgt132024-01-31 00:07:0020
31woolpower full zip jacket 600642024-01-22 00:07:0121
31manuka honig mgo 400 500g1022024-01-27 00:07:0120
31senseo original4572024-02-21 00:07:0121
31fritz powerline 510e set1332024-01-26 00:07:0121
31cordhose herren9592024-02-03 00:07:0121
31new balance 378712024-02-14 00:07:0121
31danfoss eco1142024-02-21 00:07:0121
31philips hd 5407252024-02-11 00:07:0121
31miele ultra phase 1262024-02-04 00:07:0121
31amorolfin 5ml792024-01-22 00:07:0121
31ass 100 tabletten6282024-01-22 00:07:0121
31logitech harmony smart keyboard112024-01-20 00:07:0121
31enzian schnaps1072024-02-06 00:07:0221
31makita dhp453ryj152024-02-16 00:07:0121
31geberit omega6262024-02-08 00:07:0121
31hundeleine flex3912024-02-12 00:07:0121
31cetirizin 100 tabletten1302024-02-24 00:07:0121
31nillkin8312024-02-07 00:07:0221
31chanel bleu parfum2972024-02-15 00:07:0121
31kreg k4232024-01-27 00:07:0121
31be quiet silent base 600162024-02-05 00:07:0121
31timezone cargo9582024-02-19 00:07:0121
31ew-sd501402024-02-11 00:07:0121
31ryobi r18iw3-0762024-02-10 00:07:0121
31hochbeet balkon9472024-02-20 00:07:0121
31bosch art 243992024-01-19 00:07:0121
31es-lv9n82024-01-29 00:07:0121
31reishunger4752024-02-07 00:07:0221
31leica sofort892024-02-10 00:07:0121
31hue steckdose1852024-01-21 00:07:0021
31usb c 12v5952024-02-06 00:07:0221
31hestra army leather heli5282024-01-23 00:07:0121
31philips ac2889442024-02-27 00:07:0121
31noxon a120212024-02-07 00:07:0221
31kärcher ad41172024-02-17 00:07:0120
31dp18vario232024-02-17 00:07:0121
31monster hunter world6312024-01-22 00:07:0121
31cablestar 100162024-01-27 00:07:0121
31fritz heizkörperthermostat1582024-01-19 00:07:0121
31sandisk extreme 1tb4642024-01-29 00:07:0121
31oral-b teen1062024-02-26 00:07:0121
31mv7n2zm a332024-01-20 00:07:0121
31parkside stichsäge2082024-02-05 00:07:0120
31owc aura pro x2 ssd1662024-02-07 00:07:0221
31advanceddrill 182992024-02-20 00:07:0121
31synology ds620slim922024-02-20 00:07:0121
31logitech mk4704452024-02-17 00:07:0121
31acer chromebook 3142212024-02-22 00:07:0121
31five ten trailcross lt4672024-02-24 00:07:0121
31fritz dect2101372024-01-28 00:07:0121
31marantz pm6007452024-02-10 00:07:0121
31osram night breaker h7 led3292024-02-14 00:07:0121
31iberogast advance 100 ml172024-02-03 00:07:0121
31pulsar plus4302024-02-26 00:07:0121
31fujitsu scansnap ix1600972024-02-16 00:07:0121
31suunto 9 peak3132024-02-21 00:07:0121
31new balance 4808852024-01-20 00:07:0121
31oral-b io 66512024-02-19 00:07:0121
31xiaomi smart pen932024-02-16 00:07:0121
31gsn51awcv282024-02-01 00:07:0121
31nikon z91892024-02-24 00:07:0121
31shelly 1pm plus2362024-01-24 00:07:0120
31champion steppjacke4352024-02-08 00:07:0121
31owon hds242562024-01-26 00:07:0121
31kgn39aiat662024-01-21 00:07:0021
31freestyle libre 3 sensor4432024-02-25 00:07:0121
31shelly 2pm2672024-01-21 00:07:0021
31comet wifi1362024-02-23 00:07:0121
31samsung galaxy buds 2 pro3602024-02-13 00:07:0121
31feed14142024-02-05 00:07:0121
31personal loan account82024-02-21 00:07:0121
31compressing332024-02-22 00:07:0121
31ds9234202024-02-27 00:07:0121
31samsung galaxy s23 ultra 5123612024-02-18 00:07:0120
31garmin forerunner 2651752024-02-22 00:07:0121
31xiaomi redmi note 12 128 gb5912024-02-16 00:07:0120
31redmi note 135102024-01-19 00:07:0121
31x670e6732024-02-17 00:07:0121
31galaxy watch 68292024-02-13 00:07:0121
31endlich raus aus der trauer602024-02-03 00:07:0122
31sony xperia 5 v5222024-02-13 00:07:0120
31gopro hero 123092024-02-23 00:07:0121
31the north face wanderschuh vectiv6162024-01-26 00:07:0121
30betonversiegelung1452024-02-18 00:07:0121
30die onedin linie gesamtbox112024-02-02 00:07:0120
30braun ohrthermometer2302024-01-25 00:07:0120
30converse 417762024-02-11 00:07:0121
30livocab direkt augentropfen832024-02-09 00:07:0121
30black diamond guide1782024-02-11 00:07:0121
30festool bs 752332024-02-19 00:07:0121
30deuter guide 30 sl262024-02-11 00:07:0121
30apple monitor4962024-01-23 00:07:0121
30snup nasenspray822024-01-27 00:07:0121
30armani tasche6492024-01-22 00:07:0121
30rfid lesegerät4802024-02-01 00:07:0121
30kugelhahn 28032024-02-21 00:07:0121
30teleskopstiel coronet232024-02-11 00:07:0121
30thermosohlen2822024-01-23 00:07:0121
30narciso rodriguez for her eau de toilette2322024-02-27 00:07:0121
30tupperware butterdose2302024-02-16 00:07:0121
30kaliumsilikat722024-02-26 00:07:0121
300w-206382024-01-26 00:07:0121
30proxxon kreissäge2292024-02-12 00:07:0120
30honda stromerzeuger eu 10i262024-01-22 00:07:0121
30lowa active creme482024-01-24 00:07:0121
30osram ultra life h72312024-02-16 00:07:0120
30knopfzelle ag34422024-01-26 00:07:0121
30tesa 46571072024-02-08 00:07:0120
30laxoberal tropfen 50 ml232024-01-30 00:07:0121
30voltmeter digital7612024-02-01 00:07:0121
30cli-526bk1912024-02-01 00:07:0121
30vaude matera7232024-01-20 00:07:0121
30moet chandon nectar imperial282024-02-20 00:07:0121
30apple display 275302024-02-17 00:07:0121
30bioderma sensibio h2o2612024-02-27 00:07:0120
30tena men7792024-02-08 00:07:0121
30asics gel herren11442024-02-19 00:07:0121
30hagebuttenöl4402024-01-22 00:07:0121
30wasserdestilliergerät852024-02-05 00:07:0121
30lavazza 1 kg3952024-01-31 00:07:0021
30bronchipret tp 100282024-02-19 00:07:0120
30gelenknahrung pro hyaluron792024-02-16 00:07:0120
3012v 30ah5762024-02-19 00:07:0121
30quarzsand 25kg4122024-01-24 00:07:0120
30ssd festplatte extern10912024-02-01 00:07:0121
30samsonite kofferset412024-01-23 00:07:0121
30bury cc 9068 app312024-02-22 00:07:0121
303m peltor optime5022024-02-27 00:07:0121
30samsung ssd 512 gb4052024-02-11 00:07:0121
30feigen getrocknet2742024-02-14 00:07:0121
30hylo vision hd plus 2x15ml122024-01-31 00:07:0021
30natron 1kg862024-01-25 00:07:0121
30timberland schnürschuh5372024-01-27 00:07:0121
30eucerin dermocapillaire3012024-01-19 00:07:0121
30clean drop1982024-01-19 00:07:0121
30castrol power 1 racing 4t 10w-402092024-02-01 00:07:0121
30leki voyager482024-01-23 00:07:0120
30akku schrauber 12 v6472024-02-14 00:07:0120
30nistkasten wetterfest3612024-01-29 00:07:0119
30laphroaig select472024-02-08 00:07:0121
30corona bier2482024-02-21 00:07:0121
30revox a7001152024-02-05 00:07:0121
30fastclix lanzetten2062024-02-22 00:07:0120
30hp 201x schwarz3642024-02-12 00:07:0120
30cdf 361402024-02-24 00:07:0121
30husqvarna 1301312024-02-05 00:07:0120
30bosch gba 18 v5902024-02-21 00:07:0121
anzahl 364 xml 364


Preisvergleich
Wichtige Information zu den Preisangaben: Alle Preise verstehen sich inklusive der gesetzlichen Mehrwertsteuer und gegebebenfalls zuzüglich Versandkosten. Zum Zeitpunkt des Kaufes ist der aktuell auf der Händlerseite angegebene Preis maßgeblich. Bitte beachten Sie, dass aus technischen Gründen zeitweise Abweichungen, des Preises, der Lieferbarkeit und der Versandkosten entstehen können.

Affiliate-Offenlegung: Wenn Sie auf dieser Website auf Links zu verschiedenen Händlern klicken und einen Kauf tätigen, kann dies dazu führen, dass diese Website eine Provision erhält. Zu den Partnerprogrammen und Partnerschaften gehört unter anderem das eBay Partner Network. Als Amazon-Partner verdienen wir an qualifizierten Verkäufen.
Impressum / Datenschutzerklärung     Presse     Shops    
Copyright © 2003-2023 MetaMind GmbH